Torna al catalogo

STARLINK-30594

AttivoComunicazioniVLEO
NORAD 58097·PAYLOAD·🇺🇸 United States

Lanciato Oct 21, 2023 da Vandenberg Space Force Base

Loading…

Prossimi Passaggi (prossime 24 ore)

TLE

AggiornatoSource: CelesTrak SupGP

Epoca: Sep 15, 2026, 02:14 UTC

1 58097C 23161A   26258.09354167  .00050241  00000+0  14843-2 0  2581
2 58097  53.1593   2.9371 0001113  94.4307 141.7718 15.34368210    15

Traccia STARLINK-30594 in tempo reale con AllMySat

Download on the App Store